Rifle, CO

9:29 AM MDT on July 28, 2017 (GMT -0600)
Garfield County Regional

Weather History for KRIL - March, 2013

Change the Weather History Date:

Friday, March 15, 2013

  Actual Average Record
Temperature  
Mean Temperature 50 °F 39 °F  
Max Temperature 68 °F 53 °F 74 °F (2017)
Min Temperature 32 °F 26 °F -1 °F (1956)
Degree Days  
Heating Degree Days 15 26  
Month to date heating degree days 376 415  
Since 1 July heating degree days 5430 5412  
Cooling Degree Days 0 0  
Month to date cooling degree days 0 0  
Year to date cooling degree days 0 0  
Growing Degree Days 1 (Base 50)    
Moisture  
Dew Point 27 °F    
Average Humidity 46    
Maximum Humidity 75    
Minimum Humidity 17    
Precipitation  
Precipitation 0.00 in 0.03 in 0.43 in (1921)
Month to date precipitation 0.13 0.46  
Year to date precipitation 0.90 2.03  
Snow  
Snow 0.00 in - - ()
Month to date snowfall 0.0  
Snow Depth 0.00 in    
Sea Level Pressure  
Sea Level Pressure 30.06 in    
Wind  
Wind Speed 6 mph (West)    
Max Wind Speed 28 mph    
Max Gust Speed 33 mph    
Visibility 10 miles    
Events      
T = Trace of Precipitation, MM = Missing Value Source: NWS Daily Summary

Daily Weather History Graph

Daily Weather History Graph

Search for Another Location

Airport or City:

Trip Planner

Search our weather history database for the weather conditions in past years. The results will help you decide how hot, cold, wet, or windy it might be!

Date:

Astronomy

Mar. 15, 2013 Rise Set
Actual Time 7:21 AM MDT 7:18 PM MDT
Civil Twilight 6:55 AM MDT 7:45 PM MDT
Nautical Twilight 6:23 AM MDT 8:16 PM MDT
Astronomical Twilight 5:52 AM MDT 8:47 PM MDT
Moon 9:15 AM MDT (3/15) 11:33 PM MDT (3/15)
Length of Visible Light 12h 49m
Length of Day
11h 56m
Waxing Crescent, 16% of the Moon is Illuminated
Mar 15
Waxing Crescent
Mar 19
First Quarter
Mar 27
Full
Apr 2
Last Quarter
Apr 10
New

Hourly Weather History & Observations

Time (MDT) Temp. Windchill Dew Point Humidity Pressure Visibility Wind Dir Wind Speed Gust Speed Precip Events Conditions
12:53 AM 39.0 °F - 28.0 °F 65% 30.22 in 10.0 mi Calm Calm - N/A   Clear
1:53 AM 37.9 °F - 27.0 °F 65% 30.19 in 10.0 mi Calm Calm - N/A   Clear
2:53 AM 37.0 °F 34.5 °F 28.0 °F 70% 30.18 in 10.0 mi SSE 3.5 mph - N/A   Clear
3:53 AM 37.0 °F - 27.0 °F 67% 30.15 in 10.0 mi Calm Calm - N/A   Clear
4:53 AM 35.1 °F - 27.0 °F 72% 30.14 in 10.0 mi Calm Calm - N/A   Clear
5:53 AM 34.0 °F - 27.0 °F 75% 30.15 in 10.0 mi Calm Calm - N/A   Clear
6:53 AM 35.1 °F - 27.0 °F 72% 30.15 in 10.0 mi Calm Calm - N/A   Clear
7:53 AM 36.0 °F - 28.0 °F 73% 30.16 in 10.0 mi Calm Calm - N/A   Clear
8:53 AM 37.9 °F - 28.0 °F 68% 30.18 in 10.0 mi Calm Calm - N/A   Clear
9:53 AM 42.1 °F - 28.0 °F 58% 30.16 in 10.0 mi Calm Calm - N/A   Clear
10:53 AM 46.0 °F 43.9 °F 28.0 °F 50% 30.15 in 10.0 mi NNW 4.6 mph - N/A   Clear
11:53 AM 51.1 °F - 28.0 °F 41% 30.12 in 10.0 mi Variable 5.8 mph - N/A   Clear
12:53 PM 54.0 °F - 28.0 °F 37% 30.08 in 10.0 mi North 5.8 mph - N/A   Clear
1:53 PM 57.9 °F - 28.0 °F 32% 30.04 in 10.0 mi WNW 3.5 mph - N/A   Clear
2:53 PM 63.0 °F - 25.0 °F 24% 29.97 in 10.0 mi West 16.1 mph - N/A   Clear
3:53 PM 66.0 °F - 23.0 °F 20% 29.93 in 10.0 mi West 19.6 mph 25.3 mph N/A   Clear
4:53 PM 68.0 °F - 21.9 °F 17% 29.91 in 10.0 mi West 24.2 mph - N/A   Clear
5:53 PM 64.9 °F - 25.0 °F 22% 29.91 in 10.0 mi West 18.4 mph - N/A   Clear
6:53 PM 63.0 °F - 25.0 °F 24% 29.91 in 10.0 mi West 16.1 mph - N/A   Clear
7:53 PM 61.0 °F - 25.0 °F 25% 29.92 in 10.0 mi Variable 5.8 mph - N/A   Clear
8:53 PM 54.0 °F - 28.0 °F 37% 29.94 in 10.0 mi South 3.5 mph - N/A   Clear
9:53 PM 51.1 °F - 28.0 °F 41% 29.93 in 10.0 mi East 3.5 mph - N/A   Clear
10:53 PM 48.0 °F - 28.9 °F 48% 29.93 in 10.0 mi East 3.5 mph - N/A   Clear
11:53 PM 46.0 °F 43.1 °F 28.9 °F 51% 29.91 in 10.0 mi Variable 5.8 mph - N/A   Clear